Tracking 28766 objects as of 13-Apr-2024
HD Live streaming from Space Station
objects crossing your sky now

THOR ABLESTAR DEB

Track THOR ABLESTAR DEB now!
10-day predictions


NORAD ID: 318
Int'l Code: 1961-015CU
Perigee: 523.0 km
Apogee: 598.8 km
Inclination: 66.5 °
Period: 95.7 minutes
Semi major axis: 6931 km
RCS: 0.0477 m2 (small)
Launch date: June 29, 1961
Source: United States (US)
Launch site: AIR FORCE EASTERN TEST RANGE (AFETR)

Note: This is SATELLITE DEBRIS
Your satellite tracking list
Your tracking list is empty




NASA's NSSDC Master Catalog

Two Line Element Set (TLE):
1 00318U 61015CU  24103.92634280  .00013508  00000-0  94489-3 0  9993
2 00318  66.5382  17.9423 0054654 265.9775  93.5111 15.04273843294131
Source of the keplerian elements: AFSPC